Flag for U.S.A. Weather past 2 weeks in Raleigh, North Carolina, U.S.A.

Now
37 °F

Passing clouds.


Feels Like: 32 °F
Forecast: 36 / 54 °F
Wind: 6 mph from North

Location: Raleigh-Durham International Airport


UV Index: 7 (High)

Visibility: 10 mi


Pressure: 30.11 "Hg

Humidity: 62%

Dew point: 25 °F

Location of RaleighLocation

Historic Weather in Raleigh

°F

Raleigh temperature yesterday

Maximum temperature yesterday: 70 °F (at 4:51 PM)
Minimum temperature yesterday: 41 °F (at 11:51 PM)
Average temperature yesterday: 62 °F

Past Weeks' High & Low Weather Summary

 TemperatureHumidityPressure
High86 °F (Apr 2, 4:51 PM)96% (Apr 7, 12:51 PM)30.28 "Hg (Apr 7, 12:51 PM)
Low37 °F (Apr 16, 1:51 AM)16% (Apr 2, 4:51 PM)29.59 "Hg (Apr 8, 5:51 AM)
Average63 °F56%29.98 "Hg
* Reported Apr 1 1:51 AM — Apr 16 1:51 AM, Raleigh, Weather by CustomWeather, © 2014

Note: Actual official high and low records may vary slightly from our data, if they occured in-between our weather recording intervals... More about our weather records

Advertising

Historic Weather Conditions — Data for Previous 24 hours

 ConditionsComfort  
Time TempWeatherWind HumidityBarometerVisibility
1:51 AM
Apr 16
37 °FPassing clouds.3 mph67%30.08 "Hg10 mi
12:51 AM39 °FPassing clouds.3 mph62%30.04 "Hg10 mi
11:51 PM
Apr 15
41 °FPassing clouds.9 mph65%30.02 "Hg10 mi
10:51 PM42 °FPassing clouds.7 mph71%29.97 "Hg10 mi
9:51 PM43 °FPassing clouds.7 mph76%29.92 "Hg10 mi
8:51 PM43 °FPassing clouds.9 mph82%29.85 "Hg10 mi
6:58 PM46 °FRain. Fog.7 mph87%29.76 "Hg2 mi
5:51 PM49 °FLight rain. Fog.9 mph84%29.69 "Hg5 mi
4:51 PM70 °FCloudy.17 mph76%29.59 "Hg10 mi
3:51 PM69 °FMostly cloudy.14 mph79%29.59 "Hg10 mi
2:51 PM69 °FMostly cloudy.13 mph79%29.64 "Hg10 mi
1:51 PM68 °FRain. Fog.9 mph84%29.66 "Hg3 mi
12:51 PM69 °FLight rain. Cloudy.8 mph84%29.67 "Hg10 mi
11:51 AM68 °FLight rain. Cloudy.14 mph82%29.72 "Hg10 mi
10:51 AM68 °FCloudy.15 mph82%29.71 "Hg10 mi
9:51 AM67 °FCloudy.8 mph85%29.69 "Hg10 mi
8:51 AM66 °FCloudy.7 mph87%29.72 "Hg10 mi
7:51 AM66 °FCloudy.9 mph87%29.72 "Hg10 mi
6:51 AM66 °FThunderstorms. Fog.22 mph90%29.73 "Hg2 mi
5:51 AM68 °FRain. Fog.13 mph90%29.71 "Hg3 mi
4:51 AM68 °FLight rain. Mostly cloudy.12 mph90%29.71 "Hg10 mi
3:51 AM68 °FLight rain. Passing clouds.9 mph87%29.75 "Hg7 mi
Weather by CustomWeather, © 2014

See weather overview